STARLINK-2251, 48594

Orbit data source: Space-Track

STARLINK-2251, 48594 is a payload satellite owned by SpaceX/Seattle (US) in LEO that was launched on Sat, 15 May 2021 UTC via an FALCON 9 launch vehicle from the Air Force Eastern Test Range (AFETR). Payload-class satellites include a variety of spacecraft equipped with specific instruments for various scientific and technological missions. These include communications satellites like Starlink; space stations such as the ISS; scientific satellites like the Hubble; Earth observation satellites from companies like Planet Labs, Umbra, and HawkEye 360; GPS; miniature CubeSats for education and research; and military/defense satellites.

Loading next visibility...
Identifier
48594, 2021-041AT
Orbit
LEO
Country
Flag of USUS
Related business
Manufacturer
SpaceX/Seattle
Mission
Operational Commercial Communications
Bus & Motor
STARLINK, Unknown motor
Mass
260 kg wet, ~248 kg dry
Launch date (UTC)
2021-05-15 (5 years ago)
Launch vehicle
FALCON 9
Launch site
Air Force Eastern Test Range (AFETR)
Object type
Payload
Rocket body
Debris
Shape & HBR
Box + 1 Pan, 10.1 m
Radar Cross Section
13.562 m², Large (>1 m²)

Expand to show TLE details & history
Last TLE update: 22 hours ago

TLE from 22 hours ago
0 STARLINK-2251
1 48594U 21041AT  25348.69015836  .00002043  00000-0  15603-3 0  9995
2 48594  53.0536 133.2804 0001402  86.8559 273.2591 15.06392944252677
Epoch: 2025-12-14T16:33Z
TLE epoch observation values (Epoch: 2025-12-14T16:33:49.682Z)
Latitude
0.00004°
Longitude
161.22396°
Altitude
548.057 km
Speed
7.589 km/s
True Right ascension
08h 53m 07s
True Declination
0° 00' 00"
Sunlit
Object was in full shadow at epoch
Visualization orbit readout
Latitude
Unknown
Longitude
Unknown
Altitude
Unknown
Speed
Unknown
Apparent Right ascension
Unknown
Apparent Declination
Unknown
Sunlit
N/A
Visualization observer readout
Local Sidereal Time
13:18:48
Azimuth
Unknown
Elevation
Unknown
Doppler factor
Unknown
Orbital elements
Apogee altitude
548.475 km
Perigee altitude
546.533 km
Semi-major axis
6,925.641 km
Eccentricity
0.00014
Inclination
53.0536°
RAAN
133.2804°
Arg. of periapsis
86.8559°
True anomaly
273.24306°
Mean anomaly
273.2591°
Eccentric anomaly
273.25108°
Mean motion
3.76576 °/min
Orbital period
95.6 mins
BSTAR
0.00015603
Loading maneuver chart data...
Computing Atmospheric mass density...
Loading historical data...
Loading historical data...
Loading historical data...
Loading historical data...
Loading historical data...
Loading historical data...
Loading historical data...

Documentation

Showing up to 5 results
|